When you browse on this site, cookies collect data to enhance your experience and personalize the content and advertising you see.
Visit our Privacy Policy to learn more. By continuing to use the site, you agree to this use of cookies and data.
  • In Lithuania
  • List of Countries
  • For 7 days
  • Water Temperature
  • Weather Map
  • Weather Widgets
  • user-avatar
    Login

    Hourly Weather Soma Bey

    Today, 6 June, Saturday

    Time Temperature Precipitation Wind Pressure Humidity
    00:00 +28°C° 0 mm 4 mps 746 mmHg 37%
    01:00 +27°C° 0 mm 4 mps 746 mmHg 39%
    02:00 +27°C° 0 mm 5 mps 745 mmHg 41%
    03:00 +26°C° 0 mm 4 mps 746 mmHg 43%
    04:00 +25°C° 0 mm 4 mps 746 mmHg 44%
    05:00 +25°C° 0 mm 3 mps 746 mmHg 46%
    06:00 +28°C° 0 mm 4 mps 746 mmHg 38%
    07:00 +32°C° 0 mm 4 mps 747 mmHg 30%
    08:00 +35°C° 0 mm 4 mps 747 mmHg 21%
    09:00 +37°C° 0 mm 5 mps 747 mmHg 21%
    10:00 +39°C° 0 mm 5 mps 747 mmHg 20%
    11:00 +40°C° 0 mm 6 mps 747 mmHg 19%
    12:00 +40°C° 0 mm 5 mps 746 mmHg 20%
    13:00 +40°C° 0 mm 5 mps 746 mmHg 20%
    14:00 +40°C° 0 mm 4 mps 745 mmHg 21%
    15:00 +38°C° 0 mm 4 mps 745 mmHg 22%
    16:00 +38°C° 0 mm 3 mps 745 mmHg 23%
    17:00 +37°C° 0 mm 3 mps 745 mmHg 24%
    18:00 +35°C° 0 mm 2 mps 745 mmHg 28%
    19:00 +31°C° 0 mm 2 mps 745 mmHg 31%
    20:00 +29°C° 0 mm 1 mps 745 mmHg 35%
    21:00 +29°C° 0 mm 1 mps 745 mmHg 34%
    22:00 +29°C° 0 mm 2 mps 745 mmHg 33%
    23:00 +29°C° 0 mm 2 mps 745 mmHg 32%

    Tomorrow, 7 June, Sunday

    Time Temperature Precipitation Wind Pressure Humidity
    00:00 +28°C° 0 mm 2 mps 745 mmHg 34%
    01:00 +27°C° 0 mm 2 mps 744 mmHg 35%
    02:00 +27°C° 0 mm 2 mps 744 mmHg 36%
    03:00 +26°C° 0 mm 2 mps 744 mmHg 37%
    04:00 +26°C° 0 mm 2 mps 744 mmHg 38%
    05:00 +25°C° 0 mm 3 mps 745 mmHg 39%
    06:00 +29°C° 0 mm 3 mps 745 mmHg 31%
    07:00 +34°C° 0 mm 4 mps 745 mmHg 23%
    08:00 +37°C° 0 mm 4 mps 745 mmHg 16%
    09:00 +40°C° 0 mm 4 mps 745 mmHg 15%
    10:00 +41°C° 0 mm 4 mps 745 mmHg 14%
    11:00 +42°C° 0 mm 4 mps 745 mmHg 13%
    12:00 +42°C° 0 mm 4 mps 745 mmHg 15%
    13:00 +41°C° 0 mm 4 mps 744 mmHg 17%
    14:00 +41°C° 0 mm 4 mps 744 mmHg 18%
    15:00 +40°C° 0 mm 3 mps 743 mmHg 17%
    16:00 +40°C° 0 mm 2 mps 743 mmHg 17%
    17:00 +39°C° 0 mm 2 mps 743 mmHg 16%
    18:00 +36°C° 0 mm 1 mps 743 mmHg 19%
    19:00 +33°C° 0 mm 1 mps 743 mmHg 21%
    20:00 +28°C° 0 mm 0 mps 743 mmHg 24%
    21:00 +28°C° 0 mm 0 mps 743 mmHg 23%
    22:00 +28°C° 0 mm 0 mps 744 mmHg 22%
    23:00 +30°C° 0 mm 1 mps 744 mmHg 21%

    Day after tomorrow, 8 June, Monday

    Time Temperature Precipitation Wind Pressure Humidity
    00:00 +30°C° 0 mm 1 mps 743 mmHg 21%
    01:00 +30°C° 0 mm 1 mps 743 mmHg 21%
    02:00 +29°C° 0 mm 2 mps 743 mmHg 20%
    03:00 +29°C° 0 mm 2 mps 743 mmHg 22%
    04:00 +28°C° 0 mm 2 mps 743 mmHg 24%
    05:00 +28°C° 0 mm 3 mps 743 mmHg 26%
    06:00 +31°C° 0 mm 3 mps 743 mmHg 23%
    07:00 +34°C° 0 mm 3 mps 744 mmHg 20%
    08:00 +37°C° 0 mm 3 mps 744 mmHg 18%
    09:00 +38°C° 0 mm 3 mps 744 mmHg 17%
    10:00 +40°C° 0 mm 4 mps 744 mmHg 16%
    11:00 +42°C° 0 mm 4 mps 744 mmHg 15%
    12:00 +42°C° 0 mm 4 mps 743 mmHg 15%
    13:00 +41°C° 0 mm 4 mps 743 mmHg 16%
    14:00 +41°C° 0 mm 4 mps 742 mmHg 16%
    15:00 +41°C° 0 mm 4 mps 742 mmHg 15%
    16:00 +40°C° 0 mm 3 mps 742 mmHg 15%
    17:00 +40°C° 0 mm 2 mps 742 mmHg 14%
    18:00 +38°C° 0 mm 2 mps 742 mmHg 16%
    19:00 +34°C° 0 mm 1 mps 743 mmHg 18%
    20:00 +32°C° 0 mm 1 mps 743 mmHg 21%
    21:00 +31°C° 0 mm 2 mps 743 mmHg 22%
    22:00 +30°C° 0 mm 3 mps 743 mmHg 24%
    23:00 +29°C° 0 mm 4 mps 743 mmHg 26%

    9 June, Tuesday

    Time Temperature Precipitation Wind Pressure Humidity
    00:00 +29°C° 0 mm 3 mps 743 mmHg 25%
    01:00 +29°C° 0 mm 3 mps 743 mmHg 25%
    02:00 +28°C° 0 mm 3 mps 743 mmHg 24%
    03:00 +27°C° 0 mm 3 mps 743 mmHg 30%
    04:00 +26°C° 0 mm 3 mps 743 mmHg 37%
    05:00 +25°C° 0 mm 4 mps 744 mmHg 43%
    06:00 +28°C° 0 mm 4 mps 744 mmHg 36%
    07:00 +32°C° 0 mm 4 mps 744 mmHg 28%
    08:00 +35°C° 0 mm 4 mps 745 mmHg 21%
    09:00 +37°C° 0 mm 4 mps 745 mmHg 19%
    10:00 +40°C° 0 mm 5 mps 745 mmHg 17%
    11:00 +41°C° 0 mm 6 mps 745 mmHg 15%
    12:00 +42°C° 0 mm 5 mps 744 mmHg 16%
    13:00 +42°C° 0 mm 5 mps 744 mmHg 16%
    14:00 +42°C° 0 mm 5 mps 744 mmHg 16%
    15:00 +41°C° 0 mm 4 mps 743 mmHg 18%
    16:00 +40°C° 0 mm 4 mps 743 mmHg 19%
    17:00 +38°C° 0 mm 3 mps 743 mmHg 21%
    18:00 +36°C° 0 mm 2 mps 743 mmHg 25%
    19:00 +32°C° 0 mm 1 mps 744 mmHg 30%
    20:00 +29°C° 0 mm 1 mps 744 mmHg 34%
    21:00 +29°C° 0 mm 1 mps 744 mmHg 33%
    22:00 +29°C° 0 mm 1 mps 744 mmHg 32%
    23:00 +28°C° 0 mm 1 mps 744 mmHg 31%

    10 June, Wednesday

    Time Temperature Precipitation Wind Pressure Humidity
    00:00 +28°C° 0 mm 2 mps 744 mmHg 32%
    01:00 +28°C° 0 mm 3 mps 744 mmHg 33%
    02:00 +27°C° 0 mm 4 mps 744 mmHg 35%
    03:00 +27°C° 0 mm 4 mps 744 mmHg 35%
    04:00 +26°C° 0 mm 4 mps 744 mmHg 36%
    05:00 +26°C° 0 mm 3 mps 744 mmHg 36%
    06:00 +29°C° 0 mm 4 mps 745 mmHg 31%
    07:00 +33°C° 0 mm 5 mps 745 mmHg 26%
    08:00 +36°C° 0 mm 5 mps 745 mmHg 21%
    09:00 +37°C° 0 mm 5 mps 745 mmHg 20%
    10:00 +39°C° 0 mm 6 mps 745 mmHg 19%
    11:00 +40°C° 0 mm 6 mps 745 mmHg 18%
    12:00 +40°C° 0 mm 6 mps 745 mmHg 18%
    13:00 +40°C° 0 mm 6 mps 744 mmHg 18%
    14:00 +41°C° 0 mm 6 mps 744 mmHg 18%
    15:00 +40°C° 0 mm 6 mps 744 mmHg 18%
    16:00 +39°C° 0 mm 6 mps 743 mmHg 18%
    17:00 +38°C° 0 mm 6 mps 743 mmHg 19%
    18:00 +35°C° 0 mm 5 mps 743 mmHg 22%
    19:00 +33°C° 0 mm 4 mps 744 mmHg 26%
    20:00 +30°C° 0 mm 4 mps 744 mmHg 30%
    21:00 +30°C° 0 mm 4 mps 744 mmHg 26%
    22:00 +32°C° 0 mm 5 mps 744 mmHg 22%
    23:00 +33°C° 0 mm 6 mps 745 mmHg 19%

    11 June, Thursday

    Time Temperature Precipitation Wind Pressure Humidity
    00:00 +32°C° 0 mm 6 mps 744 mmHg 20%
    01:00 +30°C° 0 mm 5 mps 744 mmHg 22%
    02:00 +30°C° 0 mm 5 mps 744 mmHg 24%
    03:00 +28°C° 0 mm 5 mps 744 mmHg 30%
    04:00 +27°C° 0 mm 4 mps 744 mmHg 36%
    05:00 +26°C° 0 mm 4 mps 744 mmHg 43%
    06:00 +29°C° 0 mm 5 mps 744 mmHg 34%
    07:00 +33°C° 0 mm 5 mps 745 mmHg 26%
    08:00 +38°C° 0 mm 6 mps 745 mmHg 18%
    09:00 +39°C° 0 mm 6 mps 745 mmHg 17%
    10:00 +40°C° 0 mm 6 mps 745 mmHg 16%
    11:00 +41°C° 0 mm 6 mps 744 mmHg 15%
    12:00 +42°C° 0 mm 6 mps 744 mmHg 14%
    13:00 +43°C° 0 mm 5 mps 743 mmHg 13%
    14:00 +43°C° 0 mm 5 mps 743 mmHg 12%
    15:00 +43°C° 0 mm 4 mps 743 mmHg 12%
    16:00 +43°C° 0 mm 3 mps 742 mmHg 12%
    17:00 +43°C° 0 mm 3 mps 742 mmHg 11%
    18:00 +39°C° 0 mm 2 mps 742 mmHg 14%
    19:00 +36°C° 0 mm 2 mps 742 mmHg 16%
    20:00 +32°C° 0 mm 1 mps 742 mmHg 19%
    21:00 +33°C° 0 mm 1 mps 742 mmHg 19%
    22:00 +34°C° 0 mm 2 mps 742 mmHg 19%
    23:00 +34°C° 0 mm 2 mps 742 mmHg 19%
    Show more